Simultaneous Nadir Overpasses (SNOs) Predictions

Prediction of SNOs between NOAA-19 and TERRA Satellite Orbit:

Table of predicted SNOs for the next 14.0 days since TLE Epoch: 11/30/2015
Index Date (NOAA-19) Time (NOAA-19) Lat,Lon (NOAA-19) SZA (NOAA-19 ) Date (TERRA) Time (TERRA) Lat,Lon (TERRA) SZA (TERRA ) Distance(km) Time Diff (sec)
1 11/30/2015 05:54:40 -72.86, -83.53 85.50 11/30/2015 05:55:13 -72.85, -83.48 85.50 1.92 33
2 11/30/2015 06:45:39 72.76, 83.94 94.42 11/30/2015 06:44:40 72.76, 84.00 94.42 2.14 59
3 12/02/2015 11:28:52 72.81, 13.07 94.80 12/02/2015 11:28:55 72.81, 13.03 94.81 1.46 3
4 12/02/2015 12:19:42 -72.21,-178.44 85.74 12/02/2015 12:18:33 -72.27, 179.65 85.77 65.32 69
5 12/04/2015 16:12:06 72.91, -57.92 95.20 12/04/2015 16:13:09 72.91, -57.85 95.21 2.26 63
6 12/04/2015 17:03:06 -72.78, 109.60 84.91 12/04/2015 17:02:39 -72.79, 109.56 84.92 1.59 27
7 12/06/2015 21:46:20 -72.87, 38.66 84.57 12/06/2015 21:46:53 -72.88, 38.66 84.56 1.29 33
8 12/06/2015 22:37:17 72.75,-153.84 95.34 12/06/2015 22:36:20 72.78,-153.88 95.35 3.13 57
9 12/09/2015 02:29:49 -73.69, -34.01 83.57 12/09/2015 02:30:55 -73.58, -30.96 83.57 96.22 66
10 12/09/2015 03:20:31 72.87, 135.15 95.68 12/09/2015 03:20:34 72.86, 135.20 95.66 2.39 3
11 12/09/2015 04:11:21 -72.19, -56.18 84.95 12/09/2015 04:10:13 -72.27, -58.27 84.96 71.36 68
12 12/11/2015 08:03:44 72.94, 64.23 95.94 12/11/2015 08:04:48 72.92, 64.26 95.92 2.47 64
13 12/11/2015 08:54:46 -72.83,-128.30 84.16 12/11/2015 08:54:18 -72.81,-128.31 84.19 2.66 28
14 12/13/2015 13:37:59 -72.89, 160.83 83.96 12/13/2015 13:38:32 -72.87, 160.73 83.98 3.69 33




NCC Satellite Simultaneous Nadir Overpasses (SNOs) Prediction Service
